Regional Weather Roundup
Issued by NWS New Orleans/Baton Rouge, LA

Home | Current Version | Previous Version | Text Only | Print | Product List | Glossary On
Versions: 1 2 3 4 5 6 7 8 9 10 11 12 13 14 15 16 17 18 19 20 21 22 23 24 25 26 27 28 29 30 31 32 33 34 35 36 37 38 39 40 41 42 43 44 45 46 47 48 49 50
860
ASUS44 KLIX 190805
RWRLIX
NEW ORLEANS REGIONAL WEATHER ROUNDUP
NATIONAL WEATHER SERVICE NEW ORLEANS LA
200 AM CST FRI DEC 19 2014

NOTE: "FAIR" INDICATES FEW OR NO CLOUDS BELOW 12,000 FEET WITH NO
      SIGNIFICANT WEATHER AND/OR OBSTRUCTIONS TO VISIBILITY.
      SKY/WX - SKY CONDITION AND SIGNIFICANT WEATHER.
      TMP - AIR TEMPERATURE.     DP    - DEWPOINT TEMPERATURE.
      RH  - RELATIVE HUMIDITY.   PRES  - PRESSURE.
      HI  - HEAT INDEX.          WCI   - WIND CHILL INDEX.

*  THESE STATIONS ARE NOT NWS OR FAA STATIONS AND ARE NOT UNDER
   NWS QUALITY CONTROL.

LAZ038-040-048-061>063-065>067-069-190900-
SOUTHEAST LOUISIANA

CITY           SKY/WX    TMP DP  RH WIND       PRES   REMARKS
N.O. AUDUBON     N/A     58  57  96 MISG        N/A
N.O. INTL ARPT CLOUDY    58  52  80 E9        30.08F
N.O. LAKEFRONT CLOUDY    59  53  80 E13       30.09F
N.O. DOWNTOWN* PTSUNNY   57  50  77 NE5       30.09F
SLIDELL        CLOUDY    55  50  83 NE6       30.10F
BATON ROUGE    CLOUDY    54  53  97 NE7       30.08F FOG
BOOTHVILLE     CLOUDY    59  57  93 NE6       30.10S
BELLE CHASSE   CLOUDY    59  55  87 E9        30.08F
BOGALUSA*      DRIZZLE   54  51  89 CALM      30.13F
GALLIANO*      CLOUDY    57  56  97 MISG      30.06F FOG
NEW ROADS*     CLOUDY    53  52  97 NE5       30.08F FOG
GONZALES*      CLOUDY    58  56  95 E5        30.06F
HAMMOND*       NOT AVBL
HOUMA*         CLOUDY    58  57  99 E7        30.06F FOG
PORT FOURCHON* CLOUDY    63  61  94 E8        30.09F

$$

MSZ070-080>082-190900-
SOUTHERN MISSISSIPPI

CITY           SKY/WX    TMP DP  RH WIND       PRES   REMARKS
MCCOMB         CLOUDY    51  48  89 E7        30.11F
GULFPORT       CLOUDY    54  49  83 NE7       30.12F
BILOXI         CLOUDY    54  49  83 NE8       30.12F
PASCAGOULA     CLOUDY    54  47  77 N6        30.14F

$$

COASTAL OBSERVATIONS
LAKE AND NEARSHORE STATIONS

STATION/POSITION TIME  TEMP    WIND        PRES    WAVE
                       AIR SEA DIR/SP/G            HT/PER
                 (UTC) (F)     (DEG/KT/KT) (MB)    (FT/S)
PASCAGOULA       0800   56      20/  6/  8 1019.8
WAVELAND YACHT   0800   54      50/ 11/ 12 1019.0
GRAND ISLE       0800   62 62   70/  7/ 10 1019.0
SOUTHWEST PASS   0800   61                 1018.7
NEW CANAL        0800   58 58   70/ 10/ 11 1019.3
SHELL BEACH      0800   59 60   70/ 13/ 14 1018.8

OFFSHORE STATIONS

STATION/POSITION TIME  TEMP    WIND        PRES    WAVE
                       AIR SEA DIR/SP/G            HT/PER
                 (UTC) (F)     (DEG/KT/KT) (MB)    (FT/S)
64 S DAUPHIN ISL 0800   69 75  100/ 10/ 12 1019.0    1

$$




USA.gov is the U.S. government's official web portal to all federal, state and local government web resources and services.